Weather History for Morganton, NC

Change the Weather History Date:

Tuesday, April 9, 2013

  Actual Average (KHKY) Record (KHKY)
Temperature  
Mean Temperature 65 °F -  
Max Temperature 83 °F 66 °F 86 °F (2001)
Min Temperature 47 °F 43 °F 20 °F (1972)
Growing Degree Days 15 (Base 50)    
Moisture  
Dew Point 49 °F    
Average Humidity 60    
Maximum Humidity 99    
Minimum Humidity 27    
Precipitation  
Precipitation 0.00 in - - ()
Sea Level Pressure  
Sea Level Pressure 30.18 in    
Wind  
Wind Speed 2 mph (SSW)    
Max Wind Speed 9 mph    
Max Gust Speed 16 mph    
Visibility 10 miles    
Events      
Averages and records for this station are not official NWS values.
T = Trace of Precipitation, MM = Missing Value Source: NWS Daily Summary

Daily Weather History Graph

Daily Weather History Graph

Search for Another Location

Airport:

Trip Planner

Search our weather history database for the weather conditions in past years. The results will help you decide how hot, cold, wet, or windy it might be!

Date:

Astronomy

Apr. 09, 2013 Rise Set
Actual Time 7:01 AM EDT 7:55 PM EDT
Civil Twilight 6:35 AM EDT 8:21 PM EDT
Nautical Twilight 6:04 AM EDT 8:52 PM EDT
Astronomical Twilight 5:32 AM EDT 9:24 PM EDT
Moon 6:22 AM EDT (4/9) 7:29 PM EDT (4/9)
Length of Visible Light 13h 45m
Length of Day
12h 53m
Waning Crescent, 1% of the Moon is Illuminated
Apr 9
Waning Crescent
Apr 10
New
Apr 18
First Quarter
Apr 25
Full
May 2
Last Quarter

Hourly Weather History & Observations

Time (EDT) Temp. Dew Point Humidity Pressure Visibility Wind Dir Wind Speed Gust Speed Precip Events Conditions
12:15 AM 53.6 °F 48.2 °F 82% 30.14 in 10.0 mi Calm Calm - N/A   Clear
12:35 AM 52.9 °F 48.6 °F 85% 30.14 in 10.0 mi Calm Calm - N/A   Clear
12:55 AM 53.8 °F 48.6 °F 82% 30.15 in 10.0 mi West 3.5 mph - N/A   Clear
1:15 AM 53.2 °F 48.7 °F 85% 30.15 in 10.0 mi SW 3.5 mph - N/A   Clear
1:35 AM 63.5 °F 49.6 °F 61% 30.16 in 10.0 mi Calm Calm - N/A   Clear
1:55 AM 54.3 °F 48.9 °F 82% 30.16 in 10.0 mi Calm Calm - N/A   Clear
2:15 AM 52.7 °F 49.5 °F 89% 30.16 in 10.0 mi Calm Calm - N/A   Clear
2:35 AM 52.0 °F 49.1 °F 90% 30.16 in 10.0 mi Calm Calm - N/A   Clear
2:55 AM 51.3 °F 48.6 °F 90% 30.16 in 10.0 mi Calm Calm - N/A   Clear
3:15 AM 50.5 °F 48.7 °F 94% 30.15 in 10.0 mi Calm Calm - N/A   Clear
3:35 AM 52.0 °F 48.9 °F 89% 30.15 in 10.0 mi NNW 3.5 mph - N/A   Clear
3:55 AM 50.2 °F 47.7 °F 91% 30.15 in 10.0 mi Calm Calm - N/A   Clear
4:15 AM 50.2 °F 48.2 °F 93% 30.16 in 10.0 mi Calm Calm - N/A   Clear
4:35 AM 52.0 °F 49.3 °F 90% 30.16 in 10.0 mi NNW 3.5 mph - N/A   Clear
4:55 AM 51.6 °F 48.4 °F 89% 30.17 in 10.0 mi Calm Calm - N/A   Clear
5:15 AM 50.0 °F 48.4 °F 94% 30.17 in 10.0 mi Calm Calm - N/A   Clear
5:35 AM 47.3 °F 46.4 °F 97% 30.18 in 10.0 mi Calm Calm - N/A   Clear
5:55 AM 47.1 °F 46.6 °F 98% 30.18 in 10.0 mi Calm Calm - N/A   Clear
6:15 AM 49.3 °F 48.6 °F 97% 30.19 in 10.0 mi Calm Calm - N/A   Clear
6:35 AM 47.5 °F 47.1 °F 99% 30.20 in 10.0 mi Calm Calm - N/A   Clear
6:55 AM 47.8 °F 47.1 °F 97% 30.20 in 10.0 mi NNW 3.5 mph - N/A   Clear
7:15 AM 48.4 °F 47.7 °F 97% 30.21 in 7.0 mi NNW 3.5 mph - N/A   Clear
7:35 AM 49.6 °F 48.6 °F 96% 30.22 in 10.0 mi Calm Calm - N/A   Clear
7:55 AM 50.2 °F 49.6 °F 98% 30.22 in 7.0 mi Calm Calm - N/A   Clear
8:15 AM 53.6 °F 50.7 °F 90% 30.23 in 10.0 mi Calm Calm - N/A   Clear
8:35 AM 55.9 °F 50.4 °F 82% 30.24 in 10.0 mi Calm Calm - N/A   Clear
8:55 AM 58.3 °F 50.5 °F 75% 30.24 in 10.0 mi Calm Calm - N/A   Clear
9:15 AM 60.8 °F 50.9 °F 70% 30.24 in 10.0 mi Calm Calm - N/A   Clear
9:35 AM 62.8 °F 50.5 °F 64% 30.24 in 10.0 mi Calm Calm - N/A   Clear
9:55 AM 64.6 °F 50.9 °F 61% 30.25 in 10.0 mi NW 3.5 mph - N/A   Clear
10:15 AM 66.0 °F 51.3 °F 59% 30.25 in 10.0 mi Calm Calm - N/A   Clear
10:35 AM 68.0 °F 51.3 °F 55% 30.25 in 10.0 mi West 4.6 mph - N/A   Clear
10:55 AM 70.9 °F 52.2 °F 51% 30.25 in 10.0 mi Calm Calm - N/A   Clear
11:15 AM 72.9 °F 51.6 °F 47% 30.25 in 10.0 mi Calm Calm - N/A   Clear
11:35 AM 74.7 °F 51.4 °F 44% 30.25 in 10.0 mi NW 3.5 mph - N/A   Clear
11:55 AM 75.7 °F 50.5 °F 41% 30.24 in 10.0 mi SSW 4.6 mph - N/A   Clear
12:15 PM 77.7 °F 48.2 °F 35% 30.23 in 10.0 mi SE 4.6 mph - N/A   Clear
12:35 PM 77.7 °F 48.4 °F 36% 30.23 in 10.0 mi South 3.5 mph - N/A   Clear
12:55 PM 77.9 °F 48.7 °F 36% 30.22 in 10.0 mi SW 4.6 mph - N/A   Clear
1:15 PM 80.6 °F 47.3 °F 31% 30.22 in 10.0 mi East 4.6 mph - N/A   Clear
1:35 PM 80.8 °F 48.0 °F 32% 30.21 in 10.0 mi SSW 3.5 mph - N/A   Clear
1:55 PM 81.0 °F 48.0 °F 31% 30.20 in 10.0 mi Calm Calm - N/A   Clear
2:15 PM 81.1 °F 47.8 °F 31% 30.19 in 10.0 mi SSW 6.9 mph - N/A   Clear
2:35 PM 81.0 °F 48.4 °F 32% 30.18 in 10.0 mi West 3.5 mph - N/A   Clear
2:55 PM 81.5 °F 49.1 °F 32% 30.17 in 10.0 mi Calm Calm - N/A   Clear
3:15 PM 82.9 °F 48.2 °F 30% 30.16 in 10.0 mi SW 8.1 mph - N/A   Scattered Clouds
3:35 PM 82.6 °F 48.0 °F 30% 30.16 in - West 3.5 mph - N/A   Clear
3:55 PM 83.3 °F 47.7 °F 29% 30.15 in - SW 3.5 mph - N/A   Clear
4:15 PM 83.3 °F 46.6 °F 28% 30.15 in - South 6.9 mph - N/A   Clear
4:35 PM 83.5 °F 46.6 °F 27% 30.14 in - SW 4.6 mph - N/A   Clear
4:55 PM 83.5 °F 47.8 °F 29% 30.13 in 10.0 mi SW 5.8 mph - N/A   Clear
5:15 PM 83.8 °F 49.1 °F 30% 30.13 in - South 6.9 mph - N/A   Scattered Clouds
5:35 PM 83.1 °F 49.3 °F 31% 30.13 in - South 9.2 mph - N/A   Scattered Clouds
5:55 PM 82.8 °F 49.6 °F 32% 30.14 in - South 6.9 mph - N/A   Scattered Clouds
6:15 PM 82.4 °F 49.3 °F 31% 30.14 in - SSW 6.9 mph - N/A   Scattered Clouds
6:35 PM 81.5 °F 49.5 °F 33% 30.14 in - SSW 6.9 mph 16.1 mph N/A   Clear
6:55 PM 80.6 °F 49.5 °F 34% 30.14 in 10.0 mi South 5.8 mph - N/A   Clear
7:15 PM 79.0 °F 50.4 °F 37% 30.14 in - South 4.6 mph - N/A   Clear
7:35 PM 77.4 °F 50.7 °F 39% 30.14 in - South 4.6 mph - N/A   Clear
7:55 PM 75.7 °F 51.3 °F 42% 30.15 in - SSW 3.5 mph - N/A   Clear
8:15 PM 74.8 °F 50.9 °F 43% 30.15 in - SSW 3.5 mph - N/A   Clear
8:35 PM 74.3 °F 50.9 °F 44% 30.15 in 10.0 mi SSW 3.5 mph - N/A   Clear
8:55 PM 72.9 °F 50.9 °F 46% 30.15 in - South 3.5 mph - N/A   Clear
9:15 PM 68.9 °F 52.2 °F 55% 30.16 in - Calm Calm - N/A   Clear
9:35 PM 65.5 °F 52.9 °F 64% 30.16 in - SSE 3.5 mph - N/A   Clear
9:55 PM 70.0 °F 51.8 °F 52% 30.16 in - South 3.5 mph - N/A   Clear
10:15 PM 70.0 °F 51.8 °F 52% 30.16 in 10.0 mi South 3.5 mph - N/A   Clear
10:55 PM 69.8 °F 52.0 °F 53% 30.15 in 10.0 mi SSW 3.5 mph - N/A   Clear
11:15 PM 68.9 °F 52.3 °F 55% 30.15 in 10.0 mi SSW 3.5 mph - N/A   Clear
11:35 PM 70.5 °F 52.2 °F 52% 30.15 in 10.0 mi WSW 3.5 mph - N/A   Clear
11:55 PM 69.1 °F 52.3 °F 55% 30.14 in 10.0 mi SW 3.5 mph - N/A   Clear